Simultaneous Nadir Overpasses (SNOs) Predictions

Prediction of SNOs between AQUA and METOP-B Satellite Orbit:

Table of predicted SNOs for the next 14.0 days since TLE Epoch: 3/26/2022
Index Date (AQUA) Time (AQUA) Lat,Lon (AQUA) SZA (AQUA ) Date (METOP-B) Time (METOP-B) Lat,Lon (METOP-B) SZA (METOP-B ) Distance(km) Time Diff (sec)
1 03/28/2022 07:14:46 -73.83,-114.16 109.17 03/28/2022 07:13:41 -73.85,-114.16 109.13 2.98 65
2 03/28/2022 08:04:15 73.90, 53.30 70.91 03/28/2022 08:04:20 73.89, 53.27 70.90 1.92 5
3 03/28/2022 08:53:45 -74.14,-139.61 108.85 03/28/2022 08:54:56 -74.18,-138.70 108.86 27.77 71
4 03/31/2022 02:48:49 -73.85, -47.71 110.25 03/31/2022 02:48:03 -73.87, -47.72 110.22 2.14 46
5 03/31/2022 03:38:18 73.93, 119.74 69.83 03/31/2022 03:38:42 73.90, 119.70 69.80 3.26 24
6 04/02/2022 22:22:53 -73.89, 18.68 111.29 04/02/2022 22:22:26 -73.88, 18.72 111.30 1.86 27
7 04/02/2022 23:12:21 73.93,-173.76 68.74 04/02/2022 23:13:05 73.91,-173.86 68.72 3.54 44
8 04/05/2022 17:07:25 73.63, -81.88 67.37 04/05/2022 17:06:14 73.55, -82.98 67.33 35.90 71
9 04/05/2022 17:56:56 -73.91, 85.14 112.35 04/05/2022 17:56:49 -73.89, 85.15 112.37 2.31 7
10 04/05/2022 18:46:24 73.95,-107.31 67.69 04/05/2022 18:47:27 73.97,-107.31 67.70 2.44 63
11 04/08/2022 12:41:30 73.83, -15.82 66.52 04/08/2022 12:40:30 73.86, -15.85 66.55 2.75 60
12 04/08/2022 13:30:57 -73.90, 151.67 113.42 04/08/2022 13:31:11 -73.90, 151.58 113.42 2.57 14



Historial Predications of SNOs between AQUA and METOP-B
